Location: San Antonio
(29.4240°N, 98.4930°W)
Time: 22:14:49
(UTC-05:00)

Tiangong - Pass Details

Date: 20 June 2024
Orbit: 374 x 377 km, 41.5° (Epoch: 18 July)

Event Time Altitude Azimuth Distance (km) Brightness Sun altitude
Rises 21:03:31 0° 299° (WNW) 2,248 4.7 -5.9°
Reaches altitude 10° 21:05:37 10° 296° (WNW) 1,392 2.5 -6.3°
Maximum altitude 21:08:43 64° 214° (SW) 422 -1.9 -6.9°
Drops below altitude 10° 21:11:48 10° 132° (SE) 1,380 0.0 -7.4°
Enters shadow 21:11:53 10° 132° (SE) 1,408 0.1 -7.5°
